sat.trackr.live / text

‹ back to catalog

STARLINK-1043

NORAD 44748 · 2019-074AM

PAYLOAD ACTIVE UNKNOWN

§ Identity

Operator
Country
US
Launch date
2019-11-11
Launch site
AFETR
Launch vehicle
Mass (kg)
RCS (m²)

Purposes: comms

External: N2YO · Heavens-Above · Gunter

§ Orbital elements

Epoch: 2026-09-09T08:22:59.854368Z

Period
91.57 min
Inclination
53.0461°
Eccentricity
0.0000256
Mean motion
15.72509164 rev/d
Perigee alt
351.6 km
Apogee alt
351.9 km
Semi-major
6,729.9 km
B*
4.1739e-4
RAAN
16.3868°
Arg perigee
306.8180°
Mean anomaly
53.2814°
Rev number
37,736

§ Raw data

STARLINK-10431 44748U 19074AM  26252.34930387  .00056657  00000+0  41739-3 0  99972 44748  53.0461  16.3868 0000256 306.8180  53.2814 15.72509164377368

JSON: /api/v1/satellites/44748 · /tle

For live sub-satellite position, see the globe view (requires WebGL).

§ Visibility from observer

Set your observer location to see the next 7 days of passes ≥ 10°. The values pass through the URL so the page stays shareable.

No JS? Fill the form by hand. The geolocation button needs JavaScript.